Weather in Verkhnepogromnoye

Russia / Volgograd Oblast     48°56′52″N   44°51′00″E
temp.,
°C
wind,
m/s
gust,
m/s
humid.,
%
clouds,
%
prec.,
mm/h
press.,
hPa
HPBL,
m
25 july, sun
sun2500:00+21nne465818 0.0 101487
03:00+21ne3560100 0.0 1015107
06:00+21ne346056 0.0 1016107
09:00+23ne33525 0.0 1018449
12:00+25ne324436 0.0 10181304
15:00+25nne434571 0.0 1018872
18:00+26ne664437 0.0 1018457
21:00+22ne610512 0.0 1019171
26 july, mon
mon2600:00+21ne5105299 0.0 1020198
03:00+20ne5954100 0.0 1021205
06:00+21nne485598 0.0 1022191
09:00+22ne585284 0.0 1022280
12:00+24ene454199 0.0 1022556
15:00+27ne34341 0.0 10211170
18:00+26nne56375 0.0 1020548
21:00+22ne584750 0.0 1021100
27 july, tue
tue2700:00+20ne51050100 0.0 1021171
03:00+19nne58553 0.0 1021128
06:00+19ne47550 0.0 1022142
09:00+23ne56411 0.0 1022627
12:00+25nne55360 0.0 10201184
15:00+26nne56360 0.0 10191320
18:00+25ene45370 0.0 1019500
21:00+22ene22453 0.0 101912
28 july, wed
wed2800:00+21nnw33464 0.0 101912
03:00+20nw22493 0.0 101912
06:00+21n33540 0.0 101972
09:00+24ne22440 0.0 1019514
12:00+25ene34392 0.0 10181347
15:00+26ene443912 0.0 1017891
18:00+26e12395 0.0 1016367
21:00+23sw014595 0.0 101611
29 july, thu
thu2900:00+23s22435 0.0 101411
03:00+22ssw234521 0.0 101412
06:00+23sw364544 0.0 1013131
09:00+26sw5837100 0.0 1013367
12:00+22n6756100 0.1 1012166
15:00+24sse2349100 0.1 1010106
18:00+23wsw2467100 1.4 1010116
21:00+22ssw46801 4.7 101080